Regional Weather Roundup
Issued by NWS

Home | Current Version | Previous Version | Text Only | Print | Product List | Glossary Off
Versions: 1 2 3 4 5 6 7 8 9 10 11 12 13 14 15 16 17 18 19 20 21 22 23 24 25 26 27 28 29 30 31 32 33 34 35 36 37 38 39 40 41 42 43 44 45 46 47 48 49 50

000
ASUS43 KTOP 211959
RWRKS

WEATHER ROUNDUP FOR KANSAS
NATIONAL WEATHER SERVICE GOODLAND KS
200 PM CST TUE FEB 21 2017

NOTE:  "FAIR" INDICATES FEW OR NO CLOUDS BELOW 12,000 FEET WITH NO
SIGNIFICANT WEATHER AND/OR OBSTRUCTIONS TO VISIBILITY.

KSZ001>006-013>018-027>032-041>047-212100-
NORTHWEST KANSAS

CITY           SKY/WX    TMP DP  RH WIND       PRES   REMARKS
GOODLAND       SUNNY     77  20  12 W15G24    29.97F
HAYS           SUNNY     74  26  16 SW15G24   29.95F
HILL CITY      SUNNY     76  23  14 VRB3      29.93F
RUSSELL        SUNNY     75  22  13 SW16      29.93F
$$

KSZ061>065-074>080-084>089-212100-
SOUTHWEST KANSAS

CITY           SKY/WX    TMP DP  RH WIND       PRES   REMARKS
DODGE CITY     SUNNY     74  17  11 SW14      29.98F
ELKHART          N/A     75  29  18 N6          N/A
GARDEN CITY    SUNNY     74  18  12 CALM      29.98F
GREAT BEND     SUNNY     74  24  15 SW9       29.97F
LIBERAL        SUNNY     75  23  14 SW13      30.00F
$$

KSZ066>073-081>083-090>101-212100-
SOUTHEAST KANSAS

CITY           SKY/WX    TMP DP  RH WIND       PRES   REMARKS
CHANUTE        SUNNY     71  49  45 NW9       29.94F
COFFEYVILLE    SUNNY     71  51  49 NW15      29.94F
HUTCHINSON     SUNNY     71  26  18 CALM      29.96F
MEDICINE LODGE   N/A     72  26  18 SW7       29.97F
NEWTON         SUNNY     66  37  34 NW6       29.98F
PARSONS        SUNNY     71  49  45 NW10      29.95F
WICHITA INTL   MOSUNNY   68  34  28 CALM      29.97F
WICHITA JABRA  SUNNY     67  37  33 VRB7      29.97F
WINFIELD       SUNNY     69  39  33 N10       29.98F
$$

KSZ007>012-019>026-033>040-048>060-102>105-212100-
NORTHEAST KANSAS

CITY           SKY/WX    TMP DP  RH WIND       PRES   REMARKS
CONCORDIA      SUNNY     72  30  21 SW14      29.93F
EMPORIA        SUNNY     67  35  30 NW5       29.96F
LAWRENCE       SUNNY     70  40  33 W8        29.94F
MANHATTAN      SUNNY     69  34  27 W3        29.94F
OLATHE IND     SUNNY     70  46  42 MISG      29.94F
OLATHE EXE     SUNNY     68  48  48 N6        29.93F
SALINA         SUNNY     74  28  18 SW7       29.95F
TOPEKA BILLARD SUNNY     67  39  35 CALM      29.94F
TOPEKA FORBES  SUNNY     70  40  33 VRB6      29.95F
$$




USA.gov is the U.S. government's official web portal to all federal, state and local government web resources and services.